WetterOnline ( https://www.wetteronline.de )

Wetter aktuell Lankau

Aktuelles Wetter: Boizenburg (46m)

6-stündlich | Neueste Meldungen
Ortszeit Temperatur Wetter
So, 29.11. 1:00 1.8° C bewölkt
Sa, 28.11. 19:00 2.7° C bedeckt
Sa, 28.11. 13:00 1.9° C bedeckt
Sa, 28.11. 7:00 -0.1° C Nebel
Sa, 28.11. 1:00 0.3° C Nebel
Fr, 27.11. 19:00 1.1° C Nebel
Fr, 27.11. 13:00 4.1° C Nebel
Fr, 27.11. 7:00 0.8° C Nebel
Ortszeit Temperatur Wetter
So, 29.11. 3:00 2.4° C bedeckt
So, 29.11. 2:50 2.4° C bedeckt
So, 29.11. 2:40 2.3° C bedeckt
So, 29.11. 2:30 2.2° C bedeckt
So, 29.11. 2:20 2.2° C bedeckt
So, 29.11. 2:10 2.4° C bedeckt
So, 29.11. 2:00 1.8° C bedeckt
So, 29.11. 1:30 1.8° C bedeckt
So, 29.11. 1:00 1.8° C bewölkt
So, 29.11. 0:30 2.0° C bedeckt
So, 29.11. 0:00 1.8° C bewölkt
Ortszeit Relative Feuchte Sichtweite
So, 29.11. 1:00 87% >70 km
Sa, 28.11. 19:00 87% 50 km
Sa, 28.11. 13:00 96% 30 km
Sa, 28.11. 7:00 100% 0.3 km
Sa, 28.11. 1:00 100% 0.2 km
Fr, 27.11. 19:00 100% 100 m
Fr, 27.11. 13:00 97% 0.6 km
Fr, 27.11. 7:00 100% 0.3 km
Ortszeit Relative Feuchte Sichtweite
So, 29.11. 3:00 84% >70 km
So, 29.11. 2:50 84% -
So, 29.11. 2:40 85% -
So, 29.11. 2:30 85% >70 km
So, 29.11. 2:20 85% -
So, 29.11. 2:10 84% -
So, 29.11. 2:00 88% >70 km
So, 29.11. 1:30 88% >70 km
So, 29.11. 1:00 87% >70 km
So, 29.11. 0:30 86% >70 km
So, 29.11. 0:00 87% >70 km
Ortszeit Niederschlagsmenge Niederschlagsart
So, 29.11. 1:00 0.0 l/m2 in 6 Std. -
Sa, 28.11. 19:00 0.0 l/m2 in 12 Std. -
Sa, 28.11. 13:00 0.0 l/m2 in 6 Std. -
Sa, 28.11. 7:00 0.0 l/m2 in 12 Std. -
Sa, 28.11. 1:00 0.0 l/m2 in 6 Std. -
Fr, 27.11. 19:00 0.0 l/m2 in 12 Std. -
Fr, 27.11. 13:00 0.0 l/m2 in 6 Std. -
Fr, 27.11. 7:00 0.0 l/m2 in 12 Std. -
Ortszeit Niederschlagsmenge Niederschlagsart
So, 29.11. 3:00 0.0 l/m2 in 1 Std. -
So, 29.11. 2:50 keine Meldung -
So, 29.11. 2:40 keine Meldung -
So, 29.11. 2:30 0.0 l/m2 in 1 Std. -
So, 29.11. 2:20 keine Meldung -
So, 29.11. 2:10 keine Meldung -
So, 29.11. 2:00 0.0 l/m2 in 1 Std. -
So, 29.11. 1:30 0.0 l/m2 in 1 Std. -
So, 29.11. 1:00 0.0 l/m2 in 1 Std. -
So, 29.11. 0:30 0.0 l/m2 in 1 Std. -
So, 29.11. 0:00 0.0 l/m2 in 1 Std. -
Ortszeit Stärke Spitze Richtung
km/h Bft. km/h Grad Sektor
So, 29.11. 1:00 6 1 17 340° N
Sa, 28.11. 19:00 4 1 29 90° O
Sa, 28.11. 13:00 13 3 26 120° SO
Sa, 28.11. 7:00 9 2 17 110° O
Sa, 28.11. 1:00 11 2 18 110° O
Fr, 27.11. 19:00 7 2 14 120° SO
Fr, 27.11. 13:00 4 1 11 130° SO
Fr, 27.11. 7:00 0 0 11 - -
Ortszeit Stärke Spitze Richtung
km/h Bft. km/h Grad Sektor
So, 29.11. 3:00 4 1 11 20° N
So, 29.11. 2:50 4 1 - 20° N
So, 29.11. 2:40 6 1 - 350° N
So, 29.11. 2:30 6 1 11 20° N
So, 29.11. 2:20 6 1 - 20° N
So, 29.11. 2:10 6 1 - 20° N
So, 29.11. 2:00 4 1 11 360° N
So, 29.11. 1:30 6 1 9 340° N
So, 29.11. 1:00 6 1 9 340° N
So, 29.11. 0:30 6 1 9 360° N
So, 29.11. 0:00 4 1 7 70° O
Ortszeit Untergrenze Bedeckung Gattung
total tief tief mittel hoch
So, 29.11. 1:00 960 m 7/8 7/8 - - -
Sa, 28.11. 19:00 570 m 8/8 8/8 - - -
Sa, 28.11. 13:00 180 m 8/8 8/8 - - -
Sa, 28.11. 7:00 <30 m 8/8 0/8 - - -
Sa, 28.11. 1:00 <30 m 8/8 0/8 - - -
Fr, 27.11. 19:00 <30 m 8/8 0/8 - - -
Fr, 27.11. 13:00 <30 m 7/8 0/8 - - -
Fr, 27.11. 7:00 <30 m 6/8 0/8 - - -
Ortszeit Bedeckungsgrad in Achtel und Wolkenuntergrenze
So, 29.11. 3:00 8(930m)
So, 29.11. 2:50 8(930m)
So, 29.11. 2:40 8(930m)
So, 29.11. 2:30 8(930m)
So, 29.11. 2:20 8(930m)
So, 29.11. 2:10 8(960m)
So, 29.11. 2:00 8(960m)
So, 29.11. 1:30 8(990m)
So, 29.11. 1:00 7(960m)
So, 29.11. 0:30 8(930m)
So, 29.11. 0:00 7(960m)
Ortszeit Luftdruck NN (hPa) Tendenz (hPa in 3 Std.)
So, 29.11. 1:00 1028 0,0
Sa, 28.11. 19:00 1027 + 0,9
Sa, 28.11. 13:00 1026 + 0,5
Sa, 28.11. 7:00 1024 + 0,5
Sa, 28.11. 1:00 1024 + 0,3
Fr, 27.11. 19:00 1023 + 0,6
Fr, 27.11. 13:00 1022 - 0,1
Fr, 27.11. 7:00 1022 + 0,2
Ortszeit Luftdruck NN (hPa) Tendenz (hPa in 3 Std.)
So, 29.11. 3:00 1028 - 0,5
So, 29.11. 2:50 1028 keine Meldung
So, 29.11. 2:40 1028 keine Meldung
So, 29.11. 2:30 1028 - 0,3
So, 29.11. 2:20 1028 keine Meldung
So, 29.11. 2:10 1028 keine Meldung
So, 29.11. 2:00 1028 - 0,4
So, 29.11. 1:30 1028 - 0,1
So, 29.11. 1:00 1028 0,0
So, 29.11. 0:30 1028 + 0,2
So, 29.11. 0:00 1028 + 0,2
Ortszeit Schneehöhe (cm)
So, 29.11. 1:00 0
Sa, 28.11. 19:00 0
Sa, 28.11. 13:00 0
Sa, 28.11. 7:00 0
Sa, 28.11. 1:00 0
Fr, 27.11. 19:00 0
Fr, 27.11. 13:00 0
Fr, 27.11. 7:00 0
Ortszeit Schneehöhe (cm)
So, 29.11. 3:00 0
So, 29.11. 2:50 0
So, 29.11. 2:40 0
So, 29.11. 2:30 0
So, 29.11. 2:20 0
So, 29.11. 2:10 0
So, 29.11. 2:00 0
So, 29.11. 1:30 0
So, 29.11. 1:00 0
So, 29.11. 0:30 0
So, 29.11. 0:00 0
Link zu dieser Seite / Seite empfehlen

Das Wetter in ...